Lid_Strength_Index
4 5 5 6 6 7 8 9 10 9 10 11 12 12 12 13 14 13 14 14 15 15
4 7 6 6 6 7 8 9 9 10 11 11 12 12 12 13 14 14 15 14 15 15
5 6 7 8 8 8 9 9 10 11 11 11 12 12 12 13 14 14 14 14 15 16
6 7 7 8 8 9 9 10 10 10 11 12 12 12 13 14 15 14 15 15 15 16
5 7 8 8 7 9 9 10 10 11 11 12 13 14 14 14 14 14 15 15 15 16
5 7 8 8 8 8 9 10 11 11 12 13 13 13 14 15 14 15 15 16 16 15
6 7 9 9 8 9 10 11 12 12 13 13 14 14 15 15 16 15 15 15 15 15
8 8 8 8 9 10 11 12 14 13 13 14 14 13 15 15 15 16 16 16 16 15
9 9 9 9 10 12 13 13 14 14 14 14 14 12 14 15 16 16 17 17 17 16
10 11 11 11 12 13 13 14 14 14 14 14 13 12 13 14 16 17 17 17 18 17
11 12 12 13 13 14 14 15 15 15 14 15 14 13 14 15 17 17 18 18 18 18
11 12 13 13 15 14 15 15 16 15 15 16 15 13 14 16 18 18 18 17 17 17
13 13 14 14 14 14 14 15 16 16 16 15 17 14 15 16 18 18 18 17 17 14
13 13 14 14 14 15 16 17 18 19 19 20 19 18 14 14 17 17 17 17 16 16